Weather History for KBFM - May, 2014

Change the Weather History Date:

Friday, May 23, 2014

  Actual Average (KMOB) Record (KMOB)
Temperature  
Mean Temperature 76 °F 76 °F  
Max Temperature 87 °F 86 °F 95 °F (1996)
Min Temperature 66 °F 66 °F 47 °F (1883)
Cooling Degree Days 11 11  
Month to date cooling degree days 192  
Year to date cooling degree days 351  
Growing Degree Days 26 (Base 50)    
Moisture  
Dew Point 67 °F    
Average Humidity 72    
Maximum Humidity 93    
Minimum Humidity 57    
Precipitation  
Precipitation 0.00 in 0.17 in 4.33 in (1957)
Month to date precipitation 3.75  
Year to date precipitation 25.45  
Sea Level Pressure  
Sea Level Pressure 30.11 in    
Wind  
Wind Speed 5 mph (SW)    
Max Wind Speed 10 mph    
Max Gust Speed -    
Visibility 10 miles    
Events      
T = Trace of Precipitation, MM = Missing Value Source: NWS Daily Summary

Daily Weather History Graph

Daily Weather History Graph

Search for Another Location

Airport or City:

Trip Planner

Search our weather history database for the weather conditions in past years. The results will help you decide how hot, cold, wet, or windy it might be!

Date:

Astronomy

May. 23, 2014 Rise Set
Actual Time 5:53 AM CDT 7:45 PM CDT
Civil Twilight 5:26 AM CDT 8:11 PM CDT
Nautical Twilight 4:54 AM CDT 8:44 PM CDT
Astronomical Twilight 4:19 AM CDT 9:18 PM CDT
Moon 2:25 AM CDT (5/23) 2:57 PM CDT (5/23)
Length of Visible Light 14h 45m
Length of Day
13h 51m
Waning Crescent, 27% of the Moon is Illuminated
May 23
Waning Crescent
May 28
New
Jun 5
First Quarter
Jun 12
Full
Jun 19
Last Quarter

Hourly Weather History & Observations

Time (CDT) Temp. Heat Index Dew Point Humidity Pressure Visibility Wind Dir Wind Speed Gust Speed Precip Events Conditions
12:53 AM 66.9 °F - 64.9 °F 93% 30.11 in 10.0 mi Calm Calm - N/A   Clear
1:53 AM 68.0 °F - 66.0 °F 93% 30.11 in 10.0 mi West 3.5 mph - N/A   Clear
2:53 AM 70.0 °F - 66.0 °F 87% 30.12 in 10.0 mi West 3.5 mph - N/A   Clear
3:17 AM 70.0 °F - 66.0 °F 87% 30.12 in 10.0 mi West 4.6 mph - N/A   Clear
3:53 AM 70.0 °F - 66.0 °F 87% 30.12 in 10.0 mi West 4.6 mph - N/A   Clear
5:53 AM 70.0 °F - 66.0 °F 87% 30.14 in 10.0 mi West 5.8 mph - N/A   Clear
6:53 AM 72.0 °F - 66.9 °F 84% 30.16 in 10.0 mi West 5.8 mph - N/A   Clear
7:53 AM 75.9 °F - 68.0 °F 76% 30.17 in 10.0 mi WNW 8.1 mph - N/A   Clear
8:53 AM 79.0 °F - 68.0 °F 69% 30.17 in 10.0 mi WNW 8.1 mph - N/A   Clear
10:53 AM 82.0 °F 85.5 °F 69.1 °F 65% 30.15 in 10.0 mi East 8.1 mph - N/A   Clear
11:53 AM 82.9 °F 87.0 °F 70.0 °F 65% 30.15 in 10.0 mi SE 6.9 mph - N/A   Scattered Clouds
12:53 PM 86.0 °F 90.7 °F 70.0 °F 59% 30.13 in 10.0 mi SE 8.1 mph - N/A   Clear
1:53 PM 86.0 °F 90.1 °F 69.1 °F 57% 30.11 in 10.0 mi SE 9.2 mph - N/A   Partly Cloudy
2:53 PM 86.0 °F 91.5 °F 71.1 °F 61% 30.10 in 10.0 mi SE 9.2 mph - N/A   Partly Cloudy
3:53 PM 84.9 °F 88.8 °F 69.1 °F 59% 30.09 in 10.0 mi South 10.4 mph - N/A   Partly Cloudy
4:53 PM 86.0 °F 90.7 °F 70.0 °F 59% 30.07 in 10.0 mi SSE 8.1 mph - N/A   Clear
5:53 PM 84.9 °F 88.2 °F 68.0 °F 57% 30.06 in 10.0 mi South 5.8 mph - N/A   Clear
6:53 PM 82.0 °F 84.1 °F 66.0 °F 58% 30.06 in 10.0 mi SW 5.8 mph - N/A   Clear
7:53 PM 78.1 °F - 64.9 °F 64% 30.07 in 10.0 mi SW 3.5 mph - N/A   Clear
8:53 PM 75.9 °F - 66.0 °F 71% 30.07 in 10.0 mi SW 5.8 mph - N/A   Clear
9:53 PM 75.0 °F - 66.0 °F 73% 30.09 in 10.0 mi WSW 5.8 mph - N/A   Clear
10:53 PM 73.9 °F - 66.0 °F 76% 30.09 in 10.0 mi West 4.6 mph - N/A   Clear